Regional Weather Roundup
Issued by NWS

Home | Current Version | Previous Version | Text Only | Print | Product List | Glossary Off
Versions: 1 2 3 4 5 6 7 8 9 10 11 12 13 14 15 16 17 18 19 20 21 22 23 24 25 26 27 28 29 30 31 32 33 34 35 36 37 38 39 40 41 42 43 44 45 46 47 48 49 50

000
ASUS43 KFSD 282102
RWRSD

WEATHER ROUNDUP FOR SOUTH DAKOTA
NATIONAL WEATHER SERVICE SIOUX FALLS SD
400 PM CDT SUN MAY 28 2017

NOTE: "FAIR" INDICATES FEW OR NO CLOUDS BELOW 12,000 FEET WITH NO
SIGNIFICANT WEATHER AND/OR OBSTRUCTIONS TO VISIBILITY.


SDZ001>005-009-010-012>017-282200-
NORTHWEST AND NORTH CENTRAL SOUTH DAKOTA

CITY           SKY/WX    TMP DP  RH WIND       PRES   REMARKS
BUFFALO          N/A     69  48  47 NW23      29.94F
FAITH            N/A     68  48  48 N15       29.98R
MOBRIDGE       LGT RAIN  74  36  25 NW21G43   29.83F
$$

SDZ012>016-024>037-041>051-057-063-072>074-282200-
SOUTHWEST AND SOUTH CENTRAL SOUTH DAKOTA

CITY           SKY/WX    TMP DP  RH WIND       PRES   REMARKS
RAPID CTY ARPT SUNNY     76  38  25 NW18G26   30.02F
PIERRE         MOSUNNY   79  35  20 NW15G25   29.90F
CUSTER         CLOUDY    59  41  51 W17G24    30.14F
ELLSWORTH AFB  MOSUNNY   76  40  27 NW17G32   30.01
PHILIP         MOSUNNY   77  35  21 NW16G29   29.95F
PINE RIDGE     LGT RAIN  59  51  75 SW9       30.11R
SPEARFISH      FAIR      70  43  37 W16G26    30.06F
WINNER         MOCLDY    76  39  26 NW12G28   29.96F
$$

SDZ004>011-016>023-039-040-282200-
NORTHEAST SOUTH DAKOTA

CITY           SKY/WX    TMP DP  RH WIND       PRES   REMARKS
ABERDEEN       PTSUNNY   73  42  32 N15G23    29.83F
WATERTOWN      MOSUNNY   70  40  33 NW18G26   29.83F
BROOKINGS      MOSUNNY   71  39  31 NW21G31   29.84F
SISSETON         N/A     73  38  27 NW21G31   29.75F
$$

SDZ017-020-022-023-036>040-048>070-282200-
SOUTHEAST SOUTH DAKOTA

CITY           SKY/WX    TMP DP  RH WIND       PRES   REMARKS
SIOUX FALLS    PTSUNNY   73  43  33 NW22G31   29.87S
HURON          MOSUNNY   75  37  25 NW24G32   29.85F
CHAMBERLAIN    PTSUNNY   79  39  23 NW23      29.92F
MITCHELL       MOSUNNY   77  36  22 NW15G30   29.90S
$$

ABBREVIATIONS USED IN REMARKS
   TC - TEMPERATURE IN CELSIUS
  WCI - WIND CHILL INDEX
   HX - HEAT INDEX
  VSB - VISIBILITY





USA.gov is the U.S. government's official web portal to all federal, state and local government web resources and services.